Regional Weather Roundup
Issued by NWS State College, PA

Home | Current Version | Previous Version | Text Only | Print | Product List | Glossary On
Versions: 1 2 3 4 5 6 7 8 9 10 11 12 13 14 15 16 17 18 19 20 21 22 23 24 25 26 27 28 29 30 31 32 33 34 35 36 37 38 39 40 41 42 43 44 45 46 47 48 49 50
000
ASUS41 KCTP 272310
RWRCTP

REGIONAL WEATHER ROUNDUP
NATIONAL WEATHER SERVICE STATE COLLEGE PA
700 PM EDT THU JUL 27 2017

Note: "fair" indicates few or no clouds below 12,000 feet with no
significant weather and/or obstructions to visibility.

* = STATION THAT DOES NOT REPORT PRECIPITATION /E.G. RAIN...SNOW...ETC/
    THUNDER OR FOG.

PAZ002>004-007>009-013>016-020>023-029>032-280000-
WESTERN PENNSYLVANIA

CITY           SKY/WX    TMP DP  RH WIND       PRES   REMARKS
ERIE           CLOUDY    80  63  55 NE3       29.88F
MEADVILLE      SUNNY     80  58  46 CALM      29.91S
FRANKLIN*      SUNNY     81  57  44 W3        29.91F
NEW CASTLE     FAIR      80  71  74 S3        29.89S
BEAVER COUNTY  MOSUNNY   81  64  57 CALM      29.89F
BUTLER*        CLOUDY    82  63  51 SW5       29.89S
PITTSBURGH INT CLOUDY    81  68  64 SW3       29.88F
PITTSBURGH     CLOUDY    80  65  59 S5        29.88F
INDIANA*       SUNNY     81  66  61 SW5       29.93S
LATROBE        PTSUNNY   81  68  65 SW3       29.91S
WASHINGTON CO* PTSUNNY   75  70  83 SW8       29.90S
$$

PAZ004>006-010>012-017>019-024>028-033>037-041-042-045-046-049>053-280000-
CENTRAL PENNSYLVANIA

CITY           SKY/WX    TMP DP  RH WIND       PRES   REMARKS
BRADFORD       CLOUDY    75  65  70 NE6       29.94S
DUBOIS         MOSUNNY   77  59  53 SW3       29.91F
CLEARFIELD     SUNNY     83  55  38 W5        29.91S
JOHNSTOWN      MOSUNNY   76  64  66 W3        29.95F
ALTOONA        SUNNY     81  64  56 W6        29.91S
STATE COLLEGE  SUNNY     81  64  57 CALM      29.89F
WILLIAMSPORT   MOSUNNY   80  68  66 S8        29.86F
SELINSGROVE    MOSUNNY   79  70  74 E3        29.88F
FT INDIANTOWN  CLOUDY    78  71  80 E3        29.89S
CAPITAL CITY   SUNNY     82  69  64 SE7       29.88S
HARRISBURG     PTSUNNY   79  73  82 SE5       29.87S
YORK           MOSUNNY   82  72  71 E6        29.88S
$$

PAZ038>040-043-044-047-048-054-055-060>062-067>071-280000-
EASTERN PENNSYLVANIA

CITY           SKY/WX    TMP DP  RH WIND       PRES   REMARKS
SCRANTON       MOSUNNY   77  64  64 CALM      29.90F
MOUNT POCONO   CLOUDY    70  67  90 CALM      29.95F
ALLENTOWN      CLOUDY    77  68  73 CALM      29.90F
QUAKERTOWN*    CLOUDY    75  70  83 CALM      29.92S
READING        MOSUNNY   78  72  81 CALM      29.88F
LANCASTER      CLOUDY    81  73  76 E5        29.89S
COATESVILLE    CLOUDY    79  72  78 CALM      29.92F
POTTSTOWN      CLOUDY    78  72  81 CALM      29.91F
BLUE BELL      CLOUDY    75  72  88 CALM      29.91S
DOYLESTOWN       N/A    N/A N/A N/A MISG      29.90S
WILLOW GROVE   NOT AVBL
NORTH PHILA    CLOUDY    80  71  74 E5        29.91S
PHILADELPHIA   CLOUDY    80  71  74 VRB7      29.89S
$$



USA.gov is the U.S. government's official web portal to all federal, state and local government web resources and services.